Weather observations for the past three days for
Burlington/Mount Vernon, Skagit Regional Airport
Imperial (Metric)
Date Time (pdt) Wind (mph) Vis. (mi.) Weather Sky Cond. Temperature (ºF) Relative Humidity Wind Chill (°F) Heat Index (°F) Pressure Precipitation (in)
Air Dwpt 6 hour altimeter (in) sea level (mb) 1 hr 3 hr 6 hr
Max. Min.
22 13:55 SW 12 G 21 10.00 Overcast OVC029 66.2 60.8 83% 30.14 0.0
22 13:35 S 8 G 16 10.00 Overcast OVC028 66.2 60.8 83% 30.13 0.0
22 13:15 Calm 10.00 Overcast OVC028 66.2 60.8 83% 30.13 0.0
22 12:55 Vrbl 7 G 18 10.00 Overcast OVC027 66.2 60.8 83% 30.13 0.0
22 12:35 Calm 10.00 Overcast OVC026 64.4 60.8 88% 30.13 0.0
22 12:15 S 7 G 13 10.00 Overcast OVC024 64.4 60.8 88% 30.12 0.0
22 11:55 Calm 10.00 Overcast OVC023 64.4 60.8 88% 30.12 0.0
22 11:35 Calm 10.00 Overcast BKN023 OVC029 64.4 60.8 88% 30.12 0.0
22 11:15 Calm 10.00 Mostly Cloudy BKN023 64.4 60.8 88% 30.12 0.0
22 10:55 Calm 10.00 Overcast OVC023 62.6 60.8 94% 30.12 0.0
22 10:35 SW 5 G 14 10.00 Overcast OVC023 62.6 60.8 94% 30.12 0.0
22 10:15 S 13 10.00 Overcast BKN021 OVC028 62.6 60.8 94% 30.12 0.0
22 09:55 Calm 10.00 Overcast BKN019 BKN024 OVC028 62.6 60.8 94% 30.12 0.0
22 09:35 SW 5 G 16 10.00 Overcast BKN019 OVC029 62.6 60.8 94% 30.11 0.0
22 09:15 Calm 10.00 Overcast OVC017 62.6 60.8 94% 30.12 0.0
22 08:55 S 12 G 18 10.00 Overcast OVC015 60.8 60.8 100% 30.12 0.0
22 08:35 S 6 G 15 10.00 Overcast OVC013 59 59 100% 30.11 0.0
22 08:15 S 9 G 15 10.00 Overcast OVC011 57.2 57.2 100% 30.12 0.0
22 07:55 Calm 10.00 Overcast OVC010 57.2 57.2 100% 30.11 0.0
22 07:35 Calm 9.00 Overcast OVC010 57.2 57.2 100% 30.11 0.0
22 07:15 S 5 G 14 10.00 Overcast OVC009 57.2 57.2 100% 30.11 0.0
22 06:55 S 5 10.00 Overcast OVC009 57.2 57.2 100% 30.11 0.0
22 06:35 Calm 10.00 Overcast OVC009 57.2 57.2 100% 30.11 0.0
22 06:15 Calm 10.00 Overcast OVC009 57.2 57.2 100% 30.11 0.0
22 05:55 Calm 10.00 Overcast OVC009 57.2 57.2 100% 30.11 0.0
22 05:35 Calm 10.00 Overcast OVC009 57.2 57.2 100% 30.11 0.0
22 05:15 S 5 10.00 Overcast OVC009 57.2 57.2 100% 30.1 0.0
22 04:55 S 6 10.00 Overcast OVC009 57.2 57.2 100% 30.1 0.0
22 04:35 S 7 10.00 Overcast OVC010 57.2 57.2 100% 30.09 0.0
22 04:15 S 8 10.00 Overcast OVC010 57.2 57.2 100% 30.09 0.0
22 03:55 S 5 G 12 10.00 Overcast OVC010 57.2 57.2 100% 30.09 0.0
22 03:35 S 7 10.00 Overcast OVC010 57.2 57.2 100% 30.1 0.0
22 03:15 Calm 10.00 Overcast OVC011 57.2 57.2 100% 30.09 0.0
22 02:55 Calm 10.00 Mostly Cloudy BKN012 57.2 57.2 100% 30.09 0.0
22 02:35 Calm 10.00 Overcast OVC013 57.2 57.2 100% 30.1 0.0
22 02:15 S 6 10.00 Overcast OVC013 57.2 57.2 100% 30.1 0.0
22 01:55 S 8 10.00 Overcast OVC013 57.2 57.2 100% 30.11 0.0
22 01:35 S 8 10.00 Overcast OVC013 57.2 57.2 100% 30.1 0.0
22 01:15 S 9 10.00 Overcast OVC013 57.2 57.2 100% 30.1 0.0
22 00:55 Calm 10.00 Overcast OVC013 57.2 57.2 100% 30.11 0.0
22 00:35 Calm 10.00 Mostly Cloudy BKN014 57.2 57.2 100% 30.1 0.0
22 00:15 Calm 10.00 Mostly Cloudy BKN014 57.2 57.2 100% 30.1 0.0
21 23:55 S 3 10.00 Partly Cloudy SCT014 SCT070 57.2 57.2 100% 30.1 0.0
21 23:35 S 7 10.00 Partly Cloudy FEW014 SCT070 57.2 57.2 100% 30.09 0.0
21 23:15 Calm 10.00 A Few Clouds FEW014 FEW070 57.2 57.2 100% 30.09 0.0
21 22:55 S 7 G 17 10.00 Fair CLR 57.2 57.2 100% 30.09 0.0
21 22:35 Calm 10.00 A Few Clouds FEW070 57.2 57.2 100% 30.09 0.0
21 22:15 Calm 10.00 Fair CLR 57.2 57.2 100% 30.09 0.0
21 21:55 Calm 10.00 Fair CLR 57.2 57.2 100% 30.09 0.0
21 21:35 Calm 10.00 Fair CLR 59 59 100% 30.09 0.0
21 21:15 S 6 G 13 10.00 Fair CLR 59 59 100% 30.08 0.0
21 20:55 S 9 10.00 Fair CLR 59 59 100% 30.08 0.0
21 20:35 S 10 G 18 10.00 Fair CLR 59 59 100% 30.07 0.0
21 20:15 S 10 G 18 10.00 Fair CLR 60.8 60.8 100% 30.07 0.0
21 19:55 S 9 G 15 10.00 Fair CLR 62.6 62.6 100% 30.07 0.0
21 19:35 Calm 10.00 Fair CLR 64.4 64.4 100% 30.07 0.0
21 19:15 Calm 10.00 Fair CLR 64.4 64.4 100% 30.07 0.0
21 18:55 Calm 10.00 Fair CLR 64.4 64.4 100% 30.06 0.0
21 18:35 S 8 10.00 Fair CLR 66.2 64.4 94% 30.07 0.0
21 18:15 S 3 G 12 10.00 Fair CLR 68 64.4 88% 30.07 0.0
21 17:55 S 10 10.00 Fair CLR 69.8 64.4 83% 30.07 0.0
21 17:35 S 7 G 13 10.00 Fair CLR 68 64.4 88% 30.08 0.0
21 17:15 S 6 10.00 Fair CLR 69.8 64.4 83% 30.08 0.0
21 16:55 S 8 G 15 9.00 Fair CLR 69.8 66.2 88% 30.08 0.0
21 16:35 Calm 9.00 Fair CLR 71.6 66.2 83% 30.08 0.0
21 16:15 Calm 9.00 Fair CLR 71.6 66.2 83% 30.08 0.0
21 15:55 S 6 G 15 9.00 Fair CLR 71.6 66.2 83% 30.07 0.0
21 15:35 S 5 G 15 10.00 Fair CLR 73.4 68 83% 30.07 0.0
21 15:15 Calm 7.00 Fair CLR 73.4 68 83% 30.06 0.0
21 14:55 Calm 9.00 Fair CLR 71.6 66.2 83% 30.06 0.0
21 14:35 Calm 9.00 Fair CLR 69.8 66.2 88% 30.05 0.0
21 14:15 Calm 10.00 Fair CLR 69.8 66.2 88% 30.07 0.0
21 13:55 Calm 10.00 Fair CLR 66.2 64.4 94% 30.06 0.0
21 13:35 Calm 10.00 Fair CLR 64.4 64.4 100% 30.05 0.0
21 13:15 N 9 10.00 Fair CLR 62.6 62.6 100% 30.03 0.0
21 12:55 Calm 10.00 Fair CLR 60.8 60.8 100% 30.07 0.0
21 12:35 Calm 10.00 Fair CLR 60.8 60.8 100% 30.11 0.0
21 12:15 Calm 10.00 Fair CLR 62.6 62.6 100% 30.1 0.0
21 11:55 S 5 10.00 Fair CLR 62.6 62.6 100% 30.11 0.0
21 11:35 Calm 10.00 Fair CLR 62.6 62.6 100% 30.1 0.0
21 11:15 S 6 10.00 Fair CLR 64.4 64.4 100% 30.09 0.0
21 10:55 S 5 10.00 Fair CLR 64.4 64.4 100% 30.08 0.0
21 10:35 Vrbl 7 10.00 Fair CLR 64.4 64.4 100% 30.08 0.0
21 10:15 S 9 10.00 Fair CLR 66.2 64.4 94% 30.07 0.0
21 09:55 Calm 10.00 Fair CLR 62.6 62.6 100% 30.07 0.0
21 09:35 Calm 10.00 Fair CLR 62.6 62.6 100% 30.06 0.0
21 09:15 Calm 10.00 A Few Clouds FEW009 62.6 62.6 100% 30.06 0.0
21 08:55 Calm 10.00 Mostly Cloudy BKN009 BKN013 60.8 60.8 100% 30.06 0.0
21 08:35 Calm 10.00 Mostly Cloudy BKN010 59 59 100% 30.07 0.0
21 08:15 Calm 10.00 Partly Cloudy SCT009 59 59 100% 30.06 0.0
21 07:55 S 6 10.00 A Few Clouds FEW009 59 59 100% 30.07 0.0
21 07:35 Calm 10.00 Partly Cloudy SCT004 57.2 57.2 100% 30.07 0.0
21 07:15 Calm 10.00 Mostly Cloudy SCT004 BKN011 57.2 57.2 100% 30.08 0.0
21 06:55 Calm 10.00 Partly Cloudy SCT011 55.4 55.4 100% 30.08 0.0
21 06:35 S 6 G 12 10.00 A Few Clouds FEW012 55.4 55.4 100% 30.11 0.0
21 06:15 Calm 6.00 Fog/Mist CLR 57.2 57.2 100% 30.1 0.0
21 05:55 S 8 3.00 Fog/Mist CLR 55.4 55.4 100% 30.09 0.0
21 05:35 Calm 10.00 Fair CLR 57.2 57.2 100% 30.07 0.0
21 05:15 Calm 10.00 Partly Cloudy SCT049 55.4 55.4 100% 30.06 0.0
21 04:55 Calm 10.00 Overcast OVC048 55.4 55.4 100% 30.04 0.0
21 04:35 Calm 10.00 Overcast OVC046 55.4 55.4 100% 30.03 0.0
21 04:15 Calm 10.00 Overcast OVC045 55.4 55.4 100% 30.03 0.0
21 03:55 Calm 10.00 Overcast OVC044 55.4 55.4 100% 30.02 0.0
21 03:35 Calm 10.00 Overcast OVC043 55.4 55.4 100% 30.02 0.0
21 02:55 Calm 10.00 Overcast OVC044 55.4 55.4 100% 30.02 0.0
21 02:35 Calm 10.00 Overcast OVC045 55.4 55.4 100% 30.02 0.0
21 02:15 Calm 10.00 Overcast OVC046 55.4 55.4 100% 30.03 0.0
21 01:55 Calm 10.00 Overcast OVC045 55.4 55.4 100% 30.03 0.0
21 01:35 Calm 10.00 Overcast OVC044 55.4 55.4 100% 30.03 0.0
21 01:15 Calm 10.00 Overcast OVC045 57.2 57.2 100% 30.04 0.0
21 00:55 Calm 10.00 Overcast OVC047 57.2 57.2 100% 30.04 0.0
21 00:35 Calm 10.00 Overcast OVC048 57.2 57.2 100% 30.04 0.0
21 00:15 Calm 10.00 Overcast OVC049 57.2 57.2 100% 30.05 0.0
20 23:55 Calm 10.00 Overcast OVC050 57.2 57.2 100% 30.05 0.0
20 23:35 Calm 10.00 Overcast OVC050 57.2 57.2 100% 30.04 0.0
20 23:15 Calm 10.00 Overcast OVC050 57.2 57.2 100% 30.05 0.0
20 22:55 Calm 10.00 Overcast OVC055 59 59 100% 30.04 0.0
20 22:35 Calm 10.00 Overcast OVC055 59 59 100% 30.04 0.0
20 22:15 Calm 10.00 Overcast OVC055 60.8 60.8 100% 30.04 0.0
20 21:55 Calm 10.00 Overcast OVC055 60.8 60.8 100% 30.04 0.0
20 21:35 Calm 10.00 Mostly Cloudy BKN050 62.6 62.6 100% 30.04 0.0
20 21:15 Calm 10.00 Fair CLR 62.6 62.6 100% 30.04 0.0
20 20:55 Calm 10.00 Fair CLR 64.4 60.8 88% 30.03 0.0
20 20:35 Calm 10.00 Fair CLR 66.2 60.8 83% 30.03 0.0
20 20:15 Calm 10.00 Fair CLR 68 57.2 69% 30.03 0.0
20 19:55 Calm 9.00 Fair CLR 69.8 57.2 64% 30.03 0.0
20 19:35 Calm 9.00 Fair CLR 73.4 57.2 57% 30.03 0.0
20 19:15 Calm 10.00 Fair CLR 75.2 55.4 50% 78 30.04 0.0
20 18:55 Calm 6.00 Fair with Haze CLR 77 59 54% 79 30.03 0.0
20 18:35 Calm 7.00 Fair CLR 78.8 59 51% 80 30.04 0.0
20 18:15 Calm 6.00 Fair with Haze CLR 78.8 59 51% 80 30.04 0.0
20 17:55 Calm 9.00 Fair CLR 78.8 59 51% 80 30.04 0.0
20 17:35 Calm 5.00 Fair with Haze CLR 80.6 59 48% 81 30.05 0.0
20 17:15 Calm 8.00 Fair CLR 78.8 59 51% 80 30.05 0.0
20 16:55 Calm 7.00 Fair CLR 80.6 59 48% 81 30.06 0.0
20 16:35 Calm 8.00 Fair CLR 80.6 59 48% 81 30.06 0.0
20 16:15 Calm 7.00 Fair CLR 80.6 57.2 45% 81 30.07 0.0
20 15:55 Calm 8.00 Fair CLR 80.6 57.2 45% 81 30.08 0.0
20 15:35 Calm 6.00 Fair with Haze CLR 80.6 57.2 45% 81 30.08 0.0
20 15:15 Calm 8.00 Fair CLR 80.6 59 48% 81 30.09 0.0
20 14:55 NW 5 G 12 7.00 Fair CLR 78.8 60.8 54% 80 30.1 0.0
20 14:35 W 6 G 13 8.00 Fair CLR 78.8 59 51% 80 30.1 0.0
20 14:15 Calm 9.00 Fair CLR 78.8 60.8 54% 80 30.11 0.0
20 13:55 W 9 6.00 Fair with Haze CLR 78.8 59 51% 80 30.11 0.0
20 13:35 Calm 8.00 Fair CLR 78.8 59 51% 80 30.12 0.0
20 13:15 NW 3 G 12 9.00 Fair CLR 78.8 59 51% 80 30.12 0.0
20 12:55 Calm 7.00 Fair CLR 77 60.8 57% 79 30.13 0.0
20 12:15 Calm 7.00 Fair CLR 77 59 54% 79 30.13 0.0
20 11:55 Calm 8.00 Fair CLR 75.2 66.2 74% 77 30.14 0.0
20 11:35 Calm 8.00 Fair CLR 75.2 68 78% 76 30.14 0.0
20 11:15 Calm 7.00 Fair CLR 73.4 68 83% 30.14 0.0
20 10:55 Calm 9.00 Fair CLR 73.4 68 83% 30.15 0.0
20 10:35 Calm 9.00 Fair CLR 71.6 66.2 83% 30.16 0.0
20 10:15 Calm 10.00 Fair CLR 69.8 66.2 88% 30.16 0.0
20 09:55 Calm 10.00 Fair CLR 68 66.2 94% 30.16 0.0
20 09:35 Calm 9.00 Fair CLR 66.2 64.4 94% 30.16 0.0
20 09:15 Calm 9.00 Fair CLR 66.2 66.2 100% 30.16 0.0
20 08:55 Calm 10.00 Fair CLR 64.4 64.4 100% 30.16 0.0
20 08:35 Calm 9.00 Fair CLR 64.4 64.4 100% 30.16 0.0
20 08:15 Calm 10.00 Fair CLR 62.6 62.6 100% 30.16 0.0
20 07:55 Calm 10.00 Fair CLR 60.8 60.8 100% 30.16 0.0
20 07:35 Calm 10.00 Fair CLR 59 59 100% 30.16 0.0
20 07:15 Calm 10.00 Fair CLR 59 59 100% 30.16 0.0
20 06:55 Calm 10.00 Fair CLR 57.2 57.2 100% 30.16 0.0
20 06:35 Calm 10.00 Fair CLR 57.2 57.2 100% 30.16 0.0
20 06:15 Calm 9.00 Fair CLR 55.4 55.4 100% 30.16 0.0
20 05:55 Calm 1.00 Fog/Mist CLR 55.4 55.4 100% 30.15 0.0
20 05:35 Calm 10.00 Fair CLR 55.4 55.4 100% 30.16 0.0
20 05:15 Calm 10.00 Fair CLR 53.6 53.6 100% 30.16 0.0
20 04:55 Calm 10.00 Fair CLR 55.4 55.4 100% 30.15 0.0
20 04:35 Calm 10.00 Fair CLR 53.6 53.6 100% 30.15 0.0
20 04:15 Calm 10.00 Fair CLR 55.4 55.4 100% 30.15 0.0
20 03:55 Calm 10.00 Fair CLR 53.6 53.6 100% 30.15 0.0
20 03:35 Calm 10.00 Fair CLR 53.6 53.6 100% 30.16 0.0
20 03:15 Calm 10.00 Fair CLR 55.4 55.4 100% 30.16 0.0
20 02:35 Calm 10.00 Fair CLR 55.4 55.4 100% 30.16 0.0
20 02:15 Calm 10.00 Fair CLR 57.2 57.2 100% 30.16 0.0
20 01:55 Calm 10.00 Fair CLR 57.2 57.2 100% 30.16 0.0
20 01:35 Calm 10.00 Fair CLR 57.2 57.2 100% 30.16 0.0
20 01:15 Calm 10.00 Fair CLR 57.2 57.2 100% 30.16 0.0
20 00:55 Calm 10.00 Fair CLR 59 59 100% 30.16 0.0
20 00:35 Calm 10.00 Fair CLR 59 59 100% 30.16 0.0
20 00:15 Calm 10.00 Fair CLR 59 59 100% 30.16 0.0
19 23:55 Calm 10.00 Fair CLR 59 59 100% 30.16 0.0
19 23:35 Calm 10.00 Fair CLR 60.8 60.8 100% 30.16 0.0
19 23:15 Calm 10.00 Fair CLR 59 59 100% 30.16 0.0
19 22:55 Calm 10.00 Fair CLR 59 59 100% 30.16 0.0
19 22:35 Calm 10.00 Fair CLR 60.8 60.8 100% 30.16 0.0
19 22:15 Calm 10.00 Fair CLR 60.8 60.8 100% 30.16 0.0
19 21:55 Calm 10.00 Fair CLR 62.6 62.6 100% 30.16 0.0
19 21:35 Calm 10.00 Fair CLR 60.8 60.8 100% 30.15 0.0
19 21:15 Calm 10.00 Fair CLR 62.6 62.6 100% 30.15 0.0
19 20:55 Calm 10.00 Fair CLR 64.4 60.8 88% 30.15 0.0
19 20:35 Calm 9.00 Fair CLR 66.2 60.8 83% 30.14 0.0
19 20:15 Calm 9.00 Fair CLR 66.2 59 78% 30.14 0.0
19 19:55 Calm 9.00 Fair CLR 69.8 57.2 64% 30.14 0.0
19 19:35 Calm 9.00 Fair CLR 71.6 59 65% 30.14 0.0
19 19:15 Calm 7.00 Fair CLR 73.4 60.8 65% 30.14 0.0
19 18:55 Calm 8.00 Fair CLR 73.4 59 61% 30.14 0.0
19 18:35 Calm 6.00 Fair with Haze CLR 75.2 59 57% 78 30.14 0.0
19 18:15 Calm 5.00 Fair with Haze CLR 75.2 59 57% 78 30.14 0.0
19 17:55 Calm 7.00 Fair CLR 75.2 59 57% 78 30.15 0.0
19 17:35 Calm 8.00 Fair CLR 75.2 59 57% 78 30.15 0.0
19 17:15 Calm 8.00 Fair CLR 75.2 59 57% 78 30.16 0.0
19 16:55 Calm 7.00 Fair CLR 77 59 54% 79 30.16 0.0
19 16:35 Calm 7.00 Fair CLR 77 60.8 57% 79 30.17 0.0
19 16:15 Calm 6.00 Fair with Haze CLR 77 59 54% 79 30.17 0.0
19 15:55 Calm 9.00 Fair CLR 77 60.8 57% 79 30.17 0.0
19 15:35 Calm 4.00 Fair with Haze CLR 77 60.8 57% 79 30.18 0.0
19 15:15 Calm 7.00 Fair CLR 77 60.8 57% 79 30.18 0.0
19 14:55 Calm 10.00 Fair CLR 77 60.8 57% 79 30.19 0.0
19 14:35 Calm 8.00 Fair CLR 77 62.6 61% 79 30.19 0.0
19 14:15 Calm 6.00 Fair with Haze CLR 77 62.6 61% 79 30.19 0.0
Date Time (pdt) Wind (mph) Vis. (mi.) Weather Sky Cond. Air Dwpt Max. Min. Relative Humidity Wind Chill (°F) Heat Index (°F) altimeter (in) sea level (mb) 1 hr 3 hr 6 hr
6 hour
Temperature (ºF) Pressure Precipitation (in)